#timestamp,LO_Frequency,Hit,StdDev 
1501851615.3,286046998.3,N,1.0
1501851635.1,286046996.9,Y,0.0
1501851655.9,286046998.8,P,0.8
1501851675.7,286046999.4,N,0.7
1501851695.6,286046999.0,N,0.6
1501851715.4,286046998.9,N,0.6
1501851735.2,286046999.5,N,0.6
1501851755.1,286046998.5,N,0.6
1501851756.0,286046998.5,N,0.6
1501851775.8,286046998.9,N,0.6
1501851795.6,286046999.3,N,0.5
1501851815.5,286046999.3,N,0.5
1501851835.3,286046999.2,N,0.5
1501851855.2,286046999.1,N,0.5
1501851875.9,286046997.0,Y,0.0
1501851895.7,286046998.8,P,0.2
1501851915.6,286046998.8,P,0.2
1501851935.4,286046998.9,P,0.1
1501851955.3,286046999.0,Y,0.0
1501851975.1,286047000.8,P,0.9
1501851995.9,286047000.4,N,0.8
1501852015.7,286046999.7,N,0.7
1501852035.5,286047002.2,Y,0.0
1501852055.4,286047001.7,P,0.9
1501852075.2,286047002.0,N,0.9
1501852095.0,286047002.7,N,1.0
1501852096.0,286047002.7,N,1.0
1501852115.8,286047002.7,N,1.0
1501852135.6,286047002.5,N,0.9
1501852155.5,286047000.0,N,1.1
1501852175.3,286047000.6,N,1.1
1501852195.1,286047000.0,N,1.2
1501852215.9,286047001.3,N,1.1
1501852235.7,286047001.4,N,1.1
1501852255.6,286047002.0,N,1.0
1501852275.4,286047001.9,N,1.0
1501852295.2,286046999.7,N,1.1
1501852315.1,286046999.7,N,1.1
1501852316.0,286046999.7,N,1.1
1501852335.8,286047002.0,N,1.1
1501852355.7,286047001.9,N,1.1
1501852375.5,286047001.4,N,1.1
1501852395.3,286047002.7,N,1.1
1501852415.2,286046999.8,N,1.1
1501852435.0,286047002.4,N,1.1
1501852435.9,286047002.4,N,1.1
1501852455.8,286047002.2,N,1.1
1501852475.6,286047001.8,N,1.1
1501852495.4,286047001.8,N,1.1
1501852515.3,286047002.1,N,1.0
1501852535.1,286047001.4,N,1.0
1501852555.8,286047004.3,Y,0.0
1501852575.7,286047002.4,P,0.5
1501852595.5,286047001.5,P,0.4
1501852615.4,286047001.5,P,0.4
1501852635.2,286047001.8,Y,0.0
1501852655.0,286047000.1,P,0.8
1501852655.9,286047000.1,N,0.8
1501852675.8,286047000.0,N,0.7
1501852695.6,286046999.9,N,0.7
1501852715.5,286047000.3,N,0.6
1501852735.3,286046999.8,N,0.6
1501852755.1,286047000.6,N,0.6
1501852775.9,286047000.3,N,0.5
1501852795.7,286047000.2,N,0.5
1501852815.6,286047002.8,Y,0.0
1501852835.4,286047000.3,P,0.0
1501852855.2,286047000.8,P,0.2
1501852875.1,286047001.2,P,0.4
1501852876.0,286047001.2,Y,0.0
1501852895.8,286047000.5,P,0.1
1501852915.7,286047000.6,P,0.1
1501852935.5,286047001.0,P,0.2
1501852955.3,286047000.9,Y,0.0
1501852975.2,286047000.7,P,0.0
1501852995.0,286047000.8,P,0.1
1501852995.9,286047000.8,P,0.1
1501853015.8,286046998.1,Y,0.0
1501853035.6,286046999.2,P,0.8
1501853055.4,286046998.8,N,0.8
1501853075.3,286046998.9,N,0.8
1501853095.1,286046998.2,N,0.9
1501853115.9,286046998.4,N,0.8
1501853135.7,286047000.8,N,1.0
1501853155.5,286046998.2,N,1.0
1501853175.4,286046998.5,N,1.0
1501853195.2,286047001.0,N,1.1
1501853215.1,286046998.2,N,1.1
1501853216.0,286046998.2,N,1.1
1501853235.8,286047001.2,N,1.2
1501853255.6,286047001.0,N,1.2
1501853275.5,286047001.1,N,1.2
1501853295.3,286047000.9,N,1.2
1501853315.2,286047000.8,N,1.2
1501853335.9,286046998.5,N,1.2
1501853355.7,286046998.9,N,1.2
1501853375.6,286046999.2,N,1.2
1501853395.4,286046996.5,N,1.3
1501853415.3,286046999.3,N,1.3
1501853435.1,286046998.2,N,1.3
1501853436.0,286046998.2,N,1.3
1501853455.8,286046999.0,N,1.3
1501853475.7,286046999.5,N,1.2
1501853495.5,286046998.9,N,1.2
1501853515.4,286046998.9,N,1.2
1501853535.2,286046999.1,N,1.2
1501853555.0,286046999.2,N,1.2
1501853555.9,286046999.2,N,1.1
1501853575.8,286046999.4,N,1.1
1501853595.6,286046999.3,N,1.1
1501853615.4,286046998.3,N,1.1
1501853635.3,286046996.5,Y,0.0
1501853655.1,286047001.2,P,1.0
1501853675.9,286046998.1,N,1.3
1501853695.7,286046998.5,N,1.2
1501853715.5,286046998.8,N,1.1
1501853735.4,286046999.0,N,1.0
1501853755.2,286046998.6,N,0.9
1501853775.1,286046998.9,N,0.9
1501853776.0,286046998.9,N,0.8
1501853795.8,286046998.9,N,0.8
1501853815.6,286047001.2,N,1.0
1501853835.5,286046998.2,N,1.0
1501853855.3,286046999.5,N,0.9
1501853875.2,286046999.3,N,0.9
1501853895.9,286046998.9,N,0.9
1501853915.7,286046998.6,N,0.9
1501853935.6,286046998.1,N,0.9
1501853955.4,286046999.5,N,0.9
1501853975.2,286046998.1,N,0.9
1501853995.1,286046999.1,N,0.8
1501853996.0,286046999.1,N,0.8
1501854015.8,286046998.3,N,0.8
1501854035.7,286047001.0,N,0.9
1501854055.5,286047001.0,N,1.0
1501854075.3,286046998.4,N,0.9
1501854095.2,286046999.1,N,0.9
1501854115.0,286046999.4,N,0.9
1501854115.9,286046999.4,N,0.9
1501854135.8,286046999.5,N,0.9
1501854155.6,286046996.5,Y,0.0
1501854175.4,286046999.5,P,0.2
1501854195.3,286046999.2,P,0.2
1501854215.1,286046999.3,P,0.1
1501854235.9,286046998.7,Y,0.0
1501854255.7,286046998.5,P,0.4
1501854275.5,286046998.3,P,0.4
1501854295.4,286047000.6,N,0.9
1501854315.2,286047000.5,N,1.0
1501854335.1,286046999.9,N,0.9
1501854336.0,286046999.9,N,0.8
1501854355.8,286047002.8,Y,0.0
1501854375.6,286047000.5,P,0.5
1501854395.5,286047000.5,N,0.4
1501854415.3,286047000.7,N,0.4
1501854435.2,286047000.3,N,0.4
1501854455.9,286047000.6,N,0.4
1501854475.7,286047000.3,N,0.3
1501854495.6,286047002.7,Y,0.0
1501854515.4,286047000.4,P,0.0
1501854535.3,286047000.6,P,0.1
1501854555.1,286047001.0,P,0.3
1501854556.0,286047001.0,Y,0.0
1501854575.8,286047001.2,P,0.3
1501854595.7,286046998.4,P,1.2
1501854615.5,286046998.2,N,1.3
1501854635.4,286046998.2,N,1.3
1501854655.2,286046998.2,N,1.3
1501854675.0,286047000.7,N,1.3
1501854676.0,286047000.7,N,1.3
1501854695.8,286047000.0,N,1.2
1501854715.6,286047000.3,N,1.2
1501854735.5,286047001.0,N,1.2
1501854755.3,286047000.6,N,1.2
1501854775.2,286047000.2,N,1.1
1501854795.9,286047000.9,N,1.1
1501854815.7,286047001.1,N,1.1
1501854835.6,286047000.9,N,1.1
1501854855.4,286047000.8,N,1.1
1501854875.3,286047000.3,N,1.0
1501854895.1,286047000.5,N,1.0
1501854896.0,286047000.5,N,1.0
1501854915.8,286047000.2,N,1.0
1501854935.7,286047000.2,N,1.0
1501854955.5,286047000.2,N,0.9
1501854975.3,286047000.2,N,0.9
1501854995.2,286047000.4,N,0.9
1501855015.0,286046999.9,N,0.9
1501855015.9,286046999.9,N,0.9
1501855035.8,286047000.9,N,0.9
1501855055.6,286047000.2,N,0.8
1501855075.4,286047000.5,N,0.8
1501855095.3,286047000.0,N,0.8
1501855115.1,286047000.8,N,0.8
1501855135.9,286047000.5,N,0.8
1501855155.7,286047000.1,N,0.7
1501855175.5,286047000.0,N,0.5
1501855195.4,286047000.1,N,0.3
